Wind_Speed
14 14 13 13 12 11 11 11 12 12 12 12 12 12 12 12 13 12 13 14 14 14 15 15 15 15 15 16 17 17 18 18 18 19 19 20 20 20
13 13 13 12 11 12 13 13 13 13 14 14 13 12 13 14 14 14 15 15 15 15 15 16 16 16 17 18 18 19 19 20 21 21 21 21 22 22
13 13 13 13 13 13 13 14 14 14 14 14 14 14 14 14 15 15 15 16 17 17 17 18 18 18 19 20 20 20 21 21 22 23 23 23 23 23
14 14 15 14 15 15 14 15 15 15 16 16 17 16 15 15 16 17 17 17 18 18 19 20 20 20 20 21 21 22 22 23 23 24 25 25 25 26
16 16 15 15 15 16 16 16 17 17 18 18 18 18 17 17 17 18 18 18 19 20 21 21 22 22 22 23 23 24 24 24 25 25 26 26 27 27
17 17 16 16 16 17 17 18 18 19 19 19 19 19 19 19 19 19 19 20 21 22 23 23 23 24 25 25 25 25 25 26 26 26 26 27 28 28
19 18 17 18 19 19 20 20 20 20 21 21 20 20 21 21 22 22 22 22 23 23 24 24 25 25 25 26 26 26 27 27 28 28 28 29 29 28
21 21 21 20 20 21 22 22 22 22 22 22 23 23 23 23 24 24 25 25 25 25 26 27 27 26 27 27 27 28 28 29 29 30 30 30 29 29
23 23 23 23 23 23 23 23 24 25 25 25 25 24 24 25 26 26 26 26 27 27 27 27 28 28 28 28 29 29 29 30 30 31 30 30 30 29
24 24 24 24 24 25 25 25 25 26 27 26 26 27 27 27 28 28 29 28 28 29 29 29 30 30 30 30 30 30 30 31 32 32 32 31 31 30
25 26 26 26 26 27 27 27 27 26 26 27 28 29 29 30 30 30 30 30 29 29 30 30 30 31 31 31 31 31 31 32 32 31 31 30 30 30
26 26 26 26 27 27 27 27 27 27 28 29 29 30 30 30 31 31 31 31 31 30 30 32 32 32 32 32 32 32 32 32 31 31 30 30 30 30
27 26 26 27 27 27 28 28 27 27 27 28 29 29 30 30 31 31 31 32 31 31 31 32 32 33 33 32 32 31 31 31 31 30 29 29 29 30
27 27 27 27 27 27 28 28 28 28 28 28 29 30 30 30 30 31 31 32 31 30 31 32 32 32 32 32 31 31 31 30 30 30 30 30 30 29
28 28 27 27 28 28 28 29 29 28 28 29 29 30 30 30 31 31 31 31 31 31 31 32 32 33 33 32 31 31 31 30 30 30 30 31 30 30
28 28 28 28 29 29 29 30 30 29 29 30 30 30 30 31 31 31 31 31 31 31 31 31 31 31 31 30 30 31 30 30 30 30 30 30 30 29
30 30 29 29 30 31 30 30 30 30 31 31 30 31 31 30 31 31 32 32 32 32 31 31 30 30 31 31 31 31 30 31 30 30 29 29 29 29
31 31 31 31 31 31 30 30 31 31 31 31 30 31 31 31 31 32 32 32 31 31 30 31 31 31 31 30 30 30 30 30 29 29 30 29 29 28
31 32 32 32 32 32 31 31 31 31 31 31 31 31 31 31 31 31 31 31 30 30 30 31 31 31 30 29 30 30 30 30 30 29 29 30 29 28
32 32 32 32 32 32 31 30 30 30 31 31 31 31 31 31 31 30 30 30 29 29 29 30 30 30 30 29 29 29 29 29 29 29 29 29 29 28
32 32 31 31 31 30 30 29 29 30 30 30 31 31 31 31 30 30 29 29 29 28 28 29 30 30 30 30 30 29 28 28 28 29 29 29 28 28
31 31 30 30 30 30 30 30 30 30 30 31 31 30 30 30 31 31 30 30 29 28 28 29 30 30 30 29 29 28 28 27 28 28 29 28 27 27
29 30 30 30 30 30 30 31 31 30 29 29 29 29 29 29 29 30 30 30 29 28 28 29 29 29 28 28 28 28 28 27 27 27 28 27 27 26
Wind_Direction
296 298 298 297 291 286 284 284 283 284 285 283 279 281 285 289 289 287 288 287 286 285 287 287 290 292 293 295 295 294 292 292 292 292 293 292 291 289
296 299 301 301 291 285 283 284 285 285 285 285 282 282 285 287 288 286 284 284 285 287 289 290 291 291 293 293 295 295 294 292 290 290 291 291 289 287
296 297 298 296 293 295 287 284 285 286 290 291 290 287 286 285 286 287 288 286 285 286 287 287 289 289 291 292 293 293 294 293 291 290 289 289 288 287
294 297 299 295 291 293 289 286 286 286 287 289 291 289 286 285 284 284 286 287 286 285 287 288 289 290 291 291 291 292 293 294 294 293 290 288 287 287
290 292 294 294 291 291 290 288 287 285 285 288 288 288 287 286 286 283 283 286 286 286 287 288 289 289 290 290 291 293 293 294 294 293 292 290 288 286
288 288 290 290 289 291 291 290 288 286 285 285 287 286 286 285 284 284 283 284 286 288 287 288 289 289 290 290 291 292 294 294 294 293 292 291 290 288
285 285 285 287 290 291 291 290 290 288 287 286 286 284 283 283 284 284 285 286 287 288 287 288 289 290 291 291 291 292 293 294 294 293 291 291 290 288
282 282 284 286 287 289 290 290 290 290 290 288 286 284 282 283 283 285 286 285 285 286 287 288 289 289 289 290 292 293 294 294 294 293 292 291 289 286
281 282 283 284 285 287 288 289 289 288 289 289 287 287 286 285 285 285 286 285 285 286 287 288 288 289 289 290 291 292 292 294 294 292 290 289 287 285
282 282 282 282 285 286 287 287 288 287 286 287 288 289 289 288 288 286 286 287 286 287 288 288 287 287 288 289 290 291 292 292 292 291 289 287 286 283
281 282 280 283 286 287 287 286 285 284 284 286 286 287 288 289 289 289 289 288 287 288 288 288 288 288 287 288 289 291 291 292 292 290 289 287 284 282
282 284 282 284 286 287 288 287 286 286 286 286 286 287 288 288 288 289 290 289 288 288 288 288 287 287 287 287 288 289 290 290 290 288 287 286 285 282
282 282 283 284 285 286 287 287 286 287 287 288 288 288 288 288 288 288 289 289 289 289 289 288 287 287 288 289 290 291 291 290 289 287 286 286 286 285
282 282 283 285 287 287 287 287 287 287 287 288 288 288 288 288 288 289 289 289 289 288 289 289 289 290 290 291 291 291 292 291 289 288 285 285 285 284
281 280 281 284 285 286 286 286 286 287 288 288 288 289 288 288 289 288 289 289 287 287 288 289 290 291 291 291 291 291 291 290 289 289 287 286 285 284
281 281 282 284 284 286 286 287 287 288 289 289 288 288 288 288 287 288 288 288 286 287 288 289 291 291 292 292 292 291 291 289 288 288 288 286 285 284
282 282 282 283 284 285 286 287 288 288 289 289 288 288 289 288 288 288 288 288 287 288 289 290 291 291 291 292 292 291 290 290 289 287 288 287 285 284
280 281 281 282 283 285 286 288 288 288 289 289 289 289 288 289 289 289 289 288 287 287 289 290 291 291 291 291 291 291 290 290 290 289 287 286 286 285
281 282 282 283 283 285 286 286 287 287 288 289 289 289 289 288 288 288 289 288 287 288 289 290 290 290 290 291 290 290 290 289 289 289 289 288 286 285
280 281 281 282 283 285 286 287 287 288 288 287 288 289 289 289 289 289 290 290 289 290 291 291 291 290 290 290 290 290 290 290 290 290 289 289 287 285
281 281 280 281 283 284 285 287 289 289 287 286 288 290 290 290 290 291 291 290 289 289 290 290 291 291 290 290 290 289 288 289 289 288 289 288 287 284
280 280 280 281 282 284 285 287 288 289 287 286 288 290 291 290 291 292 291 290 289 288 289 290 291 292 290 290 290 289 289 289 289 289 289 289 288 286
280 282 282 282 283 285 286 287 288 288 288 287 288 289 290 289 290 291 292 291 289 289 289 290 291 292 290 289 289 289 290 289 290 291 292 292 289 286
Height
5845 5845 5844 5844 5843 5843 5843 5844 5844 5843 5844 5843 5843 5843 5842 5842 5842 5842 5842 5841 5841 5840 5840 5839 5839 5838 5837 5837 5836 5834 5833 5832 5831 5830 5828 5827 5826 5825
5843 5842 5841 5840 5840 5840 5840 5840 5839 5840 5840 5840 5839 5839 5839 5838 5838 5838 5838 5838 5837 5836 5836 5835 5835 5834 5833 5832 5831 5829 5828 5827 5825 5824 5823 5821 5820 5819
5839 5839 5838 5838 5837 5837 5836 5836 5836 5836 5835 5836 5835 5835 5834 5834 5834 5834 5833 5833 5833 5832 5831 5831 5830 5829 5828 5827 5826 5824 5823 5821 5819 5818 5816 5815 5813 5812
5836 5835 5835 5834 5834 5833 5832 5832 5832 5831 5832 5831 5831 5830 5830 5830 5829 5829 5828 5828 5828 5827 5826 5825 5824 5823 5822 5821 5820 5818 5817 5815 5813 5811 5809 5808 5806 5805
5832 5831 5831 5830 5830 5829 5829 5828 5828 5827 5827 5827 5826 5825 5825 5824 5824 5824 5823 5823 5822 5822 5821 5820 5819 5817 5816 5815 5813 5812 5810 5808 5806 5804 5802 5800 5799 5797
5828 5827 5826 5826 5825 5825 5824 5823 5823 5822 5822 5821 5821 5820 5820 5819 5818 5818 5818 5817 5817 5816 5814 5813 5812 5811 5810 5808 5806 5805 5803 5801 5798 5796 5794 5793 5791 5789
5823 5822 5822 5821 5821 5820 5819 5818 5817 5817 5816 5815 5815 5814 5814 5813 5813 5812 5811 5811 5810 5809 5808 5807 5805 5804 5803 5801 5799 5797 5795 5793 5791 5788 5786 5784 5783 5781
5818 5818 5817 5817 5815 5814 5813 5812 5811 5810 5810 5809 5809 5808 5808 5807 5806 5805 5805 5804 5803 5803 5801 5800 5798 5797 5795 5793 5791 5789 5787 5785 5782 5780 5778 5776 5774 5772
5812 5812 5811 5811 5810 5808 5807 5806 5805 5804 5804 5803 5802 5801 5801 5800 5799 5798 5797 5797 5796 5795 5793 5792 5791 5789 5787 5786 5784 5782 5779 5777 5774 5772 5769 5767 5765 5763
5806 5805 5805 5804 5803 5802 5800 5800 5799 5798 5797 5796 5795 5794 5793 5792 5791 5790 5789 5788 5787 5786 5785 5784 5782 5781 5779 5777 5775 5773 5771 5768 5765 5762 5760 5758 5756 5755
5799 5798 5798 5797 5796 5795 5793 5792 5791 5790 5789 5788 5788 5786 5785 5784 5783 5782 5781 5780 5779 5778 5776 5774 5773 5771 5770 5768 5765 5763 5761 5759 5756 5753 5751 5749 5747 5746
5792 5791 5790 5790 5789 5787 5786 5785 5784 5783 5782 5781 5780 5778 5777 5776 5774 5773 5772 5771 5769 5768 5767 5765 5763 5762 5761 5759 5756 5754 5751 5749 5746 5744 5742 5740 5738 5737
5784 5783 5783 5782 5781 5780 5778 5777 5776 5775 5774 5773 5771 5770 5769 5767 5766 5764 5763 5761 5760 5759 5757 5755 5753 5752 5750 5749 5747 5744 5742 5740 5737 5735 5733 5731 5729 5728
5776 5775 5775 5774 5773 5772 5771 5769 5768 5767 5766 5765 5763 5762 5760 5759 5757 5755 5754 5752 5751 5749 5748 5746 5744 5742 5740 5739 5737 5735 5733 5730 5728 5726 5725 5723 5721 5719
5768 5768 5767 5766 5765 5764 5762 5761 5760 5758 5757 5756 5755 5753 5752 5750 5748 5746 5745 5743 5742 5740 5739 5736 5735 5733 5731 5729 5728 5726 5723 5721 5719 5717 5715 5713 5711 5710
5760 5760 5759 5758 5756 5755 5754 5752 5751 5750 5749 5747 5746 5744 5743 5741 5739 5737 5736 5734 5733 5731 5729 5727 5725 5724 5722 5720 5718 5716 5714 5712 5710 5708 5706 5704 5702 5700
5752 5751 5750 5749 5748 5747 5746 5744 5742 5741 5740 5738 5736 5735 5733 5732 5730 5728 5727 5725 5723 5722 5720 5718 5716 5714 5712 5711 5708 5706 5704 5702 5700 5699 5697 5695 5693 5691
5743 5743 5742 5741 5740 5738 5737 5735 5734 5732 5731 5729 5727 5726 5724 5722 5721 5719 5717 5715 5714 5712 5711 5709 5707 5705 5703 5701 5699 5697 5695 5693 5691 5689 5687 5686 5684 5683
5734 5734 5733 5732 5730 5729 5727 5726 5724 5723 5721 5719 5718 5716 5714 5713 5711 5710 5708 5706 5704 5702 5701 5699 5697 5695 5693 5692 5690 5687 5686 5684 5682 5680 5678 5677 5675 5674
5725 5724 5723 5722 5721 5719 5718 5716 5714 5713 5711 5710 5708 5706 5705 5703 5702 5700 5698 5696 5694 5693 5691 5689 5687 5685 5684 5683 5681 5678 5676 5674 5672 5671 5669 5668 5666 5664
5715 5714 5713 5712 5711 5710 5708 5707 5705 5703 5702 5700 5699 5697 5696 5694 5692 5690 5689 5687 5685 5683 5681 5680 5678 5676 5674 5673 5671 5670 5668 5665 5663 5662 5660 5658 5657 5655
5706 5705 5704 5703 5702 5701 5699 5698 5696 5694 5693 5691 5689 5688 5686 5684 5683 5681 5679 5678 5676 5674 5672 5671 5669 5666 5664 5663 5662 5660 5659 5657 5655 5653 5651 5649 5648 5646
5697 5696 5695 5694 5693 5692 5690 5688 5687 5685 5683 5682 5680 5679 5677 5675 5673 5672 5670 5668 5666 5665 5663 5662 5660 5658 5656 5654 5653 5651 5650 5648 5646 5645 5643 5641 5639 5638